Voltar ao catálogo

METEOR 2-6 DEB

AtivoPO
NORAD 36309·DEBRIS·🇷🇺 Russia

Lançado Sep 9, 1980 de Plesetsk Cosmodrome

Loading…

Próximas Passagens (próximas 24 horas)

TLE

EnvelhecendoSource: Space-Track

Época: Sep 7, 2026, 13:08 UTC

1 36309U 80073M   26250.54734353  .00012640  00000-0  18960-2 0  9997
2 36309  81.1981 193.2619 0015117 136.4106 223.8298 14.74442638693586

Acompanhe METEOR 2-6 DEB em tempo real com AllMySat

Download on the App Store